Wind_Speed
18 16 13 10 8 3 1 2 4 4 5 5 7 8 8 7 7 6 6 5 3 3 3 3 3 3 4 5 5 5 6 6 6 7 7 7 7 6 6 5 4 5 5
19 16 14 11 9 6 2 1 2 3 3 4 5 5 6 8 7 7 7 7 6 4 3 2 2 1 1 1 3 4 5 5 5 5 5 5 5 5 5 5 5 6 6
19 17 16 13 11 8 5 3 2 1 0 1 2 3 4 5 7 7 7 7 7 6 5 4 3 2 2 2 1 2 3 3 4 3 3 3 3 2 2 2 3 3 4
20 18 17 15 13 11 8 6 4 3 2 1 1 1 2 3 4 6 6 7 8 8 7 6 5 3 3 2 1 1 1 0 1 2 1 2 1 0 1 1 1 2 2
18 18 18 17 16 14 11 8 7 6 5 4 4 2 2 3 4 5 6 7 7 7 7 7 6 6 5 5 4 3 3 3 3 3 2 2 1 1 1 2 3 3 3
18 20 21 20 18 15 14 12 10 10 9 8 8 7 6 6 6 6 6 6 6 8 8 7 7 6 5 5 5 4 5 5 5 5 5 5 4 3 3 4 4 4 5
16 19 21 21 19 18 17 15 14 12 13 13 13 12 12 11 11 10 10 9 9 8 8 8 8 7 7 6 4 5 5 5 6 6 7 7 7 6 6 5 5 5 6
14 14 21 19 20 22 20 18 17 14 13 15 15 15 16 16 17 16 16 15 14 13 12 11 10 10 9 7 7 5 6 7 7 7 8 8 9 9 8 8 8 8 7
14 12 16 18 19 17 16 16 15 16 15 15 17 18 19 19 20 21 21 21 20 17 17 15 14 13 11 10 9 9 9 8 8 8 9 9 9 10 10 11 11 10 10
13 12 13 13 15 16 15 16 17 18 18 18 19 20 21 22 22 22 22 23 24 23 21 20 19 17 16 14 13 12 11 11 10 9 9 10 10 10 10 12 13 13 13
14 14 15 15 16 17 18 18 20 21 22 23 24 25 25 26 26 26 26 26 26 26 25 24 24 23 21 20 18 16 15 14 12 12 10 10 11 12 10 12 13 14 14
17 17 18 19 20 21 22 24 24 26 27 27 27 27 28 28 28 28 28 29 29 29 29 29 28 27 26 25 25 23 20 19 17 16 14 13 12 14 15 15 15 16 16
21 21 22 23 24 25 26 26 26 27 28 28 28 28 28 28 28 28 28 29 30 30 30 31 31 30 30 29 29 29 27 25 23 21 20 17 16 16 17 18 17 19 19
24 25 25 25 26 26 26 27 28 28 27 26 25 24 23 23 23 23 23 24 25 25 26 27 29 31 32 31 31 31 30 29 29 28 26 24 21 20 20 22 23 22 22
27 27 28 27 27 27 28 28 27 25 23 21 21 21 21 21 22 22 22 23 23 24 24 25 27 28 29 30 30 31 32 33 32 32 31 31 29 27 25 25 24 25 26
29 29 28 28 29 28 27 25 23 21 20 20 20 20 20 21 21 21 21 22 22 22 22 23 24 25 26 27 28 29 30 31 33 34 34 35 35 33 32 29 29 28 28
31 31 30 30 29 26 24 22 21 20 20 20 20 20 20 21 21 21 22 23 23 24 24 24 24 24 24 24 25 27 28 28 30 32 35 37 38 38 38 37 34 33 31
33 32 32 30 27 25 23 22 21 20 20 20 20 21 22 22 23 24 24 25 25 26 26 26 25 26 26 26 27 27 28 29 29 29 31 35 38 41 42 42 40 38 36
33 31 29 27 26 24 23 22 22 21 21 21 21 22 23 24 25 26 26 27 28 28 29 29 28 27 27 26 26 27 28 29 30 31 31 32 35 38 41 44 45 44 42
32 30 29 28 27 26 25 24 23 22 22 22 23 23 24 25 26 27 28 29 29 29 29 30 31 31 29 28 27 27 28 29 30 31 32 34 34 36 38 40 42 46 46
31 30 29 29 28 28 27 26 25 24 24 24 24 25 26 27 27 28 30 30 30 30 30 29 30 31 30 29 27 25 28 28 30 31 33 34 35 37 38 38 40 42 44
31 31 30 30 30 30 29 27 26 26 25 25 24 25 26 27 28 29 29 30 30 30 30 30 30 31 32 31 31 28 25 26 26 27 32 35 37 38 39 40 40 41 42
33 33 33 33 33 31 29 28 28 26 24 24 24 25 26 27 28 29 29 30 30 30 30 30 30 30 31 31 31 31 31 29 27 22 25 29 33 36 39 41 41 43 43
36 36 35 34 33 30 29 28 25 24 24 24 25 26 27 27 28 28 29 30 30 30 30 30 30 30 30 30 30 30 31 33 34 31 22 26 28 32 35 37 40 42 44
40 39 37 34 32 31 30 27 24 23 23 24 25 26 27 27 28 29 30 31 31 31 31 31 31 31 30 30 30 30 30 32 36 38 38 25 26 29 31 33 36 37 42
42 39 35 34 33 31 28 25 22 21 22 24 26 27 28 28 28 29 30 31 31 31 32 31 32 32 31 31 30 31 32 32 33 38 40 41 34 25 31 30 34 36 38
Wind_Direction
182 180 177 173 166 175 164 123 111 110 96 82 83 74 56 54 54 50 52 44 33 12 15 30 36 55 84 85 91 90 93 97 92 76 70 64 64 61 63 58 50 39 39
188 185 185 184 182 200 210 145 121 128 123 113 92 80 61 48 56 54 54 55 49 38 34 22 16 18 38 98 101 107 113 116 113 108 92 78 67 55 47 50 29 13 19
195 188 189 194 194 213 218 225 225 198 83 91 86 68 60 47 47 47 46 45 50 47 43 33 30 21 12 10 34 103 115 119 123 123 122 110 87 62 60 37 27 10 8
202 194 197 202 207 221 234 241 243 250 270 285 313 3 29 27 24 16 23 31 35 34 28 22 18 1 349 336 314 298 299 224 149 146 136 136 136 153 327 342 319 326 335
213 204 205 210 212 221 234 248 259 264 268 281 286 293 319 335 341 345 356 4 6 13 12 13 12 4 349 333 321 296 278 265 264 258 248 269 255 265 269 270 289 298 297
225 220 213 219 225 226 231 239 248 254 264 270 277 285 291 300 311 319 332 338 343 345 348 351 351 355 358 347 331 313 293 285 273 266 265 265 269 267 269 273 267 278 279
246 242 225 223 227 229 236 240 248 255 258 266 271 278 284 287 291 296 297 300 303 309 315 318 324 327 328 331 323 312 301 288 276 267 261 259 262 275 278 277 267 266 271
255 240 225 226 231 235 238 245 251 258 262 266 272 276 281 284 286 287 288 288 288 291 292 296 303 308 310 312 309 298 284 282 283 281 269 257 247 251 262 268 268 263 268
250 242 233 231 239 247 246 251 254 254 255 260 269 273 277 279 280 283 285 286 285 284 286 286 287 290 294 298 301 302 298 289 280 276 277 271 254 247 252 256 258 258 258
239 236 241 236 240 246 251 254 256 261 265 265 266 270 274 276 276 277 278 280 283 283 282 283 283 284 285 288 289 292 291 290 290 283 273 270 266 251 250 255 256 254 253
244 244 243 247 249 253 260 264 267 269 271 272 273 274 274 274 274 274 274 274 275 276 278 278 277 277 278 278 280 281 282 281 279 278 277 270 266 263 248 259 254 255 253
252 254 257 260 262 265 266 267 269 272 274 275 276 276 276 275 274 274 273 273 273 273 273 274 274 273 274 274 275 274 274 274 275 276 277 273 264 261 255 252 252 252 250
258 260 263 265 266 267 270 272 274 275 276 277 277 278 278 277 275 273 273 272 272 272 272 272 273 272 271 270 270 271 270 269 267 269 270 270 270 264 263 260 249 250 250
262 265 267 267 269 270 272 275 276 277 278 278 278 278 278 279 279 280 279 278 276 276 275 274 273 273 272 269 267 267 267 266 264 264 264 263 262 263 260 262 262 261 255
260 262 266 268 271 273 274 274 274 274 274 275 278 281 284 285 286 285 285 284 283 281 279 278 276 275 274 275 272 269 266 264 263 261 261 264 263 257 256 259 257 256 255
264 266 267 269 270 271 270 269 268 269 272 276 279 282 284 286 287 288 288 289 289 289 288 286 284 283 281 279 278 276 272 268 264 262 259 259 261 261 258 255 257 256 252
267 270 272 272 271 268 264 263 264 266 270 274 277 279 282 284 286 287 288 290 290 290 290 290 289 287 285 284 282 282 280 276 271 268 264 259 258 259 258 256 254 255 258
269 270 272 270 266 261 259 258 261 264 267 271 274 278 281 283 284 286 286 286 286 286 285 285 284 284 284 286 286 286 284 282 278 274 271 266 261 257 256 256 254 252 251
271 272 269 265 261 258 257 259 262 265 269 273 275 277 278 280 282 283 283 283 282 281 281 281 278 277 278 280 279 280 281 280 280 279 276 270 267 264 260 256 255 253 250
263 262 259 257 255 254 255 258 262 267 270 274 278 281 283 285 286 287 286 285 284 283 282 280 279 277 275 275 277 278 279 278 278 277 276 275 274 270 265 262 258 255 252
260 256 253 251 250 251 253 255 259 263 268 273 277 281 285 287 288 288 287 287 285 283 281 279 279 279 278 277 275 279 281 281 281 281 279 275 274 272 272 269 266 262 254
257 253 252 251 250 250 251 254 257 260 264 270 277 282 286 288 289 288 287 287 287 287 287 286 285 286 285 283 282 278 269 272 272 274 277 278 276 274 273 273 272 268 264
253 251 251 249 248 248 250 254 258 263 270 276 281 284 286 287 289 291 292 293 292 292 292 292 291 290 290 290 291 291 285 274 264 258 263 268 272 275 275 273 271 271 269
252 251 250 249 249 251 253 256 260 266 272 278 282 284 287 291 294 296 296 297 297 298 299 299 299 298 298 297 298 299 298 294 289 274 264 265 267 269 271 272 272 272 270
254 250 249 250 249 249 251 253 257 264 272 279 284 287 290 292 295 297 299 301 302 304 305 305 305 305 303 303 301 300 300 301 300 299 292 268 273 272 272 272 271 271 270
253 251 251 249 247 248 250 253 260 271 280 285 287 288 291 293 296 298 300 302 304 305 307 308 308 308 308 307 307 306 305 303 303 302 300 300 291 268 275 276 275 274 272
Height
3189 3191 3192 3193 3193 3194 3195 3195 3196 3196 3196 3196 3196 3196 3196 3195 3195 3194 3194 3193 3193 3193 3194 3194 3195 3194 3195 3195 3194 3194 3194 3194 3193 3193 3193 3193 3193 3193 3193 3194 3193 3192 3192
3189 3190 3192 3193 3193 3194 3194 3195 3196 3197 3197 3197 3197 3197 3196 3195 3195 3194 3194 3194 3194 3194 3194 3194 3193 3194 3194 3194 3194 3194 3194 3194 3194 3194 3193 3193 3193 3193 3192 3193 3193 3192 3192
3188 3189 3191 3192 3193 3194 3194 3194 3195 3196 3197 3197 3197 3197 3196 3196 3195 3195 3195 3195 3195 3195 3194 3194 3193 3193 3193 3193 3194 3193 3193 3193 3193 3194 3194 3194 3193 3193 3193 3193 3193 3193 3193
3187 3188 3190 3191 3192 3193 3194 3194 3195 3195 3196 3196 3197 3196 3196 3196 3196 3195 3196 3195 3195 3194 3193 3193 3193 3193 3193 3193 3193 3193 3193 3193 3193 3193 3194 3194 3194 3194 3194 3194 3193 3193 3193
3186 3188 3189 3190 3191 3192 3193 3194 3194 3194 3194 3195 3195 3196 3196 3196 3196 3195 3195 3195 3195 3194 3193 3193 3192 3192 3192 3192 3192 3192 3193 3192 3193 3193 3193 3193 3194 3194 3193 3194 3194 3193 3193
3185 3186 3187 3189 3190 3191 3192 3193 3194 3194 3193 3193 3194 3194 3195 3195 3195 3195 3195 3194 3194 3194 3193 3193 3192 3191 3192 3192 3191 3191 3192 3191 3192 3191 3192 3192 3193 3193 3193 3193 3193 3192 3192
3183 3184 3185 3186 3188 3189 3191 3191 3192 3193 3192 3192 3192 3192 3192 3193 3193 3193 3193 3193 3193 3193 3193 3192 3192 3191 3191 3190 3189 3189 3189 3189 3190 3190 3189 3190 3191 3191 3191 3191 3192 3191 3191
3181 3181 3182 3184 3185 3186 3187 3189 3190 3191 3191 3191 3190 3190 3190 3190 3190 3190 3190 3190 3190 3190 3190 3190 3189 3189 3189 3189 3188 3188 3188 3187 3188 3189 3189 3189 3189 3189 3189 3189 3189 3189 3189
3179 3179 3180 3182 3182 3184 3185 3187 3187 3187 3188 3188 3188 3187 3187 3187 3187 3186 3186 3186 3186 3187 3187 3187 3187 3187 3187 3186 3186 3186 3186 3186 3186 3186 3187 3187 3187 3187 3187 3187 3188 3187 3187
3178 3178 3179 3180 3181 3182 3183 3184 3184 3184 3184 3185 3185 3185 3184 3184 3184 3183 3183 3182 3181 3181 3182 3182 3183 3183 3183 3183 3183 3184 3184 3184 3184 3184 3184 3185 3185 3185 3184 3185 3186 3186 3185
3176 3177 3178 3178 3179 3179 3180 3180 3180 3180 3180 3180 3180 3180 3180 3179 3179 3179 3178 3178 3178 3177 3178 3178 3179 3179 3179 3180 3180 3181 3181 3181 3181 3181 3181 3181 3182 3181 3181 3182 3181 3181 3182
3173 3174 3175 3175 3176 3176 3176 3176 3176 3175 3175 3175 3175 3174 3174 3173 3173 3173 3173 3172 3172 3171 3172 3173 3173 3174 3175 3175 3175 3176 3177 3177 3178 3178 3178 3178 3178 3178 3178 3178 3178 3178 3178
3170 3171 3171 3171 3171 3171 3172 3170 3170 3169 3169 3169 3168 3168 3167 3167 3167 3167 3167 3166 3166 3166 3166 3166 3166 3167 3168 3168 3169 3169 3171 3172 3173 3173 3173 3174 3174 3175 3175 3174 3174 3173 3174
3166 3166 3166 3166 3167 3166 3166 3165 3165 3164 3163 3163 3162 3162 3162 3162 3162 3161 3161 3160 3160 3160 3159 3159 3160 3160 3160 3161 3163 3163 3164 3165 3166 3167 3167 3168 3169 3169 3170 3170 3170 3170 3170
3161 3161 3161 3160 3160 3160 3160 3160 3160 3159 3159 3159 3158 3157 3157 3157 3156 3156 3155 3155 3155 3154 3154 3153 3153 3154 3153 3154 3154 3156 3156 3158 3159 3160 3161 3161 3162 3163 3164 3164 3163 3163 3164
3155 3155 3155 3155 3155 3155 3155 3154 3154 3154 3155 3154 3154 3153 3153 3152 3152 3152 3151 3150 3149 3148 3148 3148 3148 3147 3148 3148 3147 3148 3149 3149 3151 3151 3153 3154 3154 3155 3155 3157 3157 3157 3158
3150 3150 3149 3149 3149 3150 3150 3150 3150 3151 3150 3150 3150 3149 3148 3148 3148 3147 3146 3146 3145 3143 3143 3143 3142 3142 3142 3141 3141 3141 3141 3142 3143 3142 3143 3145 3146 3146 3146 3147 3149 3151 3152
3145 3145 3145 3145 3145 3144 3145 3145 3145 3145 3146 3145 3145 3144 3143 3143 3143 3142 3141 3141 3140 3139 3138 3138 3137 3137 3136 3136 3135 3134 3134 3134 3134 3135 3135 3135 3136 3137 3137 3138 3140 3142 3143
3138 3138 3138 3138 3139 3140 3140 3141 3141 3141 3141 3140 3140 3139 3139 3138 3137 3136 3135 3135 3134 3133 3132 3132 3132 3132 3131 3131 3130 3129 3128 3127 3126 3126 3126 3127 3127 3127 3128 3129 3130 3131 3134
3130 3131 3132 3133 3134 3134 3135 3135 3135 3135 3135 3134 3133 3133 3132 3132 3131 3130 3130 3129 3129 3128 3127 3125 3124 3124 3124 3124 3123 3122 3121 3119 3118 3117 3117 3117 3117 3118 3118 3119 3120 3121 3123
3123 3124 3124 3125 3126 3127 3128 3128 3129 3129 3129 3129 3128 3127 3126 3125 3125 3125 3124 3123 3122 3121 3120 3119 3118 3116 3116 3115 3116 3115 3112 3111 3110 3109 3108 3108 3108 3108 3108 3108 3110 3111 3112
3116 3117 3118 3119 3120 3121 3121 3122 3123 3123 3123 3123 3121 3120 3119 3119 3119 3118 3117 3116 3115 3114 3113 3112 3110 3108 3106 3105 3104 3105 3107 3105 3103 3102 3100 3098 3098 3098 3098 3097 3098 3099 3101
3110 3111 3112 3112 3113 3115 3116 3116 3116 3116 3115 3114 3114 3113 3113 3112 3112 3111 3110 3109 3107 3106 3105 3104 3102 3101 3098 3095 3094 3093 3093 3094 3096 3097 3094 3092 3090 3088 3088 3088 3088 3088 3089
3102 3104 3104 3105 3106 3108 3109 3109 3108 3108 3108 3107 3107 3107 3106 3106 3105 3104 3103 3102 3101 3099 3097 3096 3094 3093 3091 3088 3086 3084 3081 3079 3078 3082 3087 3084 3082 3081 3079 3078 3078 3078 3077
3093 3095 3097 3099 3100 3101 3102 3102 3102 3102 3102 3102 3102 3102 3101 3100 3099 3098 3097 3095 3094 3092 3090 3088 3086 3085 3084 3081 3079 3077 3075 3070 3066 3063 3062 3075 3073 3071 3070 3069 3067 3067 3067
3085 3089 3092 3094 3095 3096 3097 3097 3097 3097 3097 3097 3096 3096 3095 3094 3092 3091 3090 3088 3087 3085 3084 3082 3080 3079 3077 3074 3072 3069 3066 3064 3061 3055 3051 3049 3055 3065 3059 3059 3057 3056 3056